Location: Unspecified
(0.0000°N, 0.0000°E)
Time: 02:38:55
(UTC+00:00)

Explorer 11/Cluster Stage 4 - All Passes

Search period start: 10 February 2016 00:00
Search period end: 20 February 2016 00:00
Orbit: 467 x 1267 km, 28.8° (Epoch: 09 February)

Date Brightness Start Highest point End Pass type
(mag) Time Alt. Az. Time Alt. Az. Time Alt. Az.
10 Feb - 00:38:45 10° WSW 00:42:26 83° SSE 00:46:37 10° ENE night (unlit)
10 Feb - 02:28:24 10° WNW 02:31:07 16° NNW 02:34:10 10° NNE night (unlit)
10 Feb - 09:49:00 10° NNW 09:54:35 20° NNE 10:00:16 10° ENE daylight
10 Feb - 11:36:29 10° NW 11:44:36 57° NNE 11:52:19 10° ESE daylight
10 Feb - 13:26:18 10° WNW 13:34:10 49° SSW 13:41:07 10° SE daylight
10 Feb - 15:19:57 10° WSW 15:23:37 14° SSW 15:27:02 10° S daylight
10 Feb - 22:43:02 10° S 22:44:58 14° SSE 22:46:53 10° ESE night (unlit)
11 Feb - 00:29:36 10° WSW 00:33:13 70° NNW 00:37:14 10° NE night (unlit)
11 Feb - 02:20:19 10° NW 02:21:59 12° NNW 02:23:46 10° N night (unlit)
11 Feb - 09:39:10 10° NNW 09:45:11 23° NNE 09:51:24 10° ENE daylight
11 Feb - 11:26:51 10° NW 11:35:04 67° NNE 11:43:01 10° ESE daylight
11 Feb - 13:16:57 10° W 13:24:39 42° SSW 13:31:35 10° SE daylight
11 Feb - 15:11:24 10° SW 15:14:19 12° SSW 15:17:04 10° S daylight
11 Feb - 22:33:08 10° SSW 22:35:46 18° SSE 22:38:22 10° ESE night (unlit)
12 Feb - 00:20:32 10° WSW 00:24:01 48° NNW 00:27:48 10° NE night (unlit)
12 Feb - 09:29:24 10° NNW 09:35:44 27° NNE 09:42:25 10° E daylight
12 Feb - 11:17:16 10° NW 11:25:29 78° NNE 11:33:38 10° ESE daylight
12 Feb - 13:07:42 10° W 13:15:08 36° SSW 13:22:00 10° SE daylight
12 Feb - 15:03:14 10° SW 15:05:01 11° SSW 15:06:46 10° S daylight
12 Feb - 22:23:25 10° SSW 22:26:35 25° SSE 22:29:36 10° E night (unlit)
13 Feb - 00:11:32 10° W 00:14:49 33° NNW 00:18:17 10° NE night (unlit)
13 Feb - 09:19:42 10° NNW 09:26:16 31° NNE 09:33:20 10° E daylight
13 Feb - 11:07:46 10° WNW 11:15:55 90° SSW 11:24:11 10° ESE daylight
13 Feb - 12:58:31 10° W 13:05:38 31° SSW 13:12:20 10° SSE daylight
13 Feb - 22:13:49 10° SW 22:17:24 34° SSE 22:20:43 10° E night (unlit)
14 Feb - 00:02:38 10° W 00:05:38 24° NNW 00:08:42 10° NNE night (unlit)
14 Feb - 07:25:52 10° NNE 07:26:58 10° NNE 07:28:05 10° NE daylight
14 Feb - 09:10:04 10° NNW 09:16:46 36° NNE 09:24:08 10° E daylight
14 Feb - 10:58:19 10° WNW 11:06:21 78° SSW 11:14:39 10° SE daylight
14 Feb - 12:49:26 10° W 12:56:09 27° SSW 13:02:37 10° SSE daylight
14 Feb - 22:04:18 10° SW 22:08:12 49° SSE 22:11:44 10° ENE night (unlit)
14 Feb - 23:53:53 10° WNW 23:56:26 18° NNW 23:58:59 10° NNE night (unlit)
15 Feb - 07:15:17 10° N 07:17:40 12° NNE 07:20:12 10° NE daylight
15 Feb - 09:00:29 10° NW 09:07:15 42° NNE 09:14:52 10° E daylight
15 Feb - 10:48:57 10° WNW 10:56:47 66° SSW 11:05:03 10° SE daylight
15 Feb - 12:40:28 10° WSW 12:46:43 23° SSW 12:52:50 10° SSE daylight
15 Feb - 20:08:00 10° S 20:10:10 13° SSE 20:12:10 10° SE visible
15 Feb - 21:54:50 10° SW 21:59:00 71° SSE 22:02:39 10° ENE night (unlit)
15 Feb - 23:45:21 10° WNW 23:47:13 13° NNW 23:49:04 10° N night (unlit)
16 Feb - 07:05:14 10° N 07:08:21 14° NNE 07:11:44 10° ENE daylight
16 Feb - 08:50:57 10° NW 08:57:43 49° NNE 09:05:30 10° ESE daylight
16 Feb - 10:39:39 10° WNW 10:47:15 56° SSW 10:55:23 10° SE daylight
16 Feb - 12:31:36 10° WSW 12:37:19 20° SSW 12:42:58 10° SSE daylight
16 Feb - 19:57:42 10° SSW 20:01:01 17° SSE 20:03:58 10° ESE visible
16 Feb - 21:45:26 10° WSW 21:49:45 82° NNW 21:53:29 10° ENE night (unlit)
16 Feb - 23:37:52 10° NNW 23:38:01 10° NNW 23:38:10 10° NNW night (unlit)
17 Feb - 06:55:23 10° N 06:59:00 16° NNE 07:03:01 10° ENE daylight
17 Feb - 08:41:29 10° NW 08:48:11 57° NNE 08:56:04 10° ESE daylight
17 Feb - 10:30:27 10° W 10:37:43 47° SSW 10:45:40 10° SE daylight
17 Feb - 12:22:52 10° WSW 12:27:57 17° SSW 12:33:01 10° SSE daylight
17 Feb - 19:47:40 10° SSW 19:51:51 23° SSE 19:55:24 10° ESE visible
17 Feb - 21:36:04 10° WSW 21:40:30 59° NNW 21:44:15 10° NE visible
18 Feb - 06:45:39 10° N 06:49:38 18° NNE 06:54:08 10° ENE daylight
18 Feb - 08:32:05 10° NW 08:38:39 68° NNE 08:46:34 10° ESE daylight
18 Feb - 10:21:19 10° W 10:28:14 40° SSW 10:35:53 10° SE daylight
18 Feb - 12:14:18 10° SW 12:18:37 15° SSW 12:22:57 10° S daylight
18 Feb - 19:37:46 10° SW 19:42:38 31° SSE 19:46:40 10° E visible
18 Feb - 21:26:46 10° WSW 21:31:14 44° NNW 21:34:58 10° NE visible
19 Feb - 06:36:00 10° NNW 06:40:14 21° NNE 06:45:09 10° E daylight
19 Feb - 08:22:44 10° NW 08:29:09 81° NNE 08:36:59 10° ESE daylight
19 Feb - 10:12:18 10° W 10:18:47 34° SSW 10:26:01 10° SE daylight
19 Feb - 12:05:59 10° SW 12:09:20 13° SSW 12:12:43 10° S daylight
19 Feb - 17:40:59 10° S 17:43:42 13° SSE 17:46:14 10° SE daylight
19 Feb - 19:27:57 10° SW 19:33:24 40° SSE 19:37:47 10° E visible
19 Feb - 21:17:31 10° W 21:21:55 34° NNW 21:25:36 10° NNE visible
